| time (UTC) | temp F | wind direction | speed MPH | gust MPH | rain 1hr in | rain 24hr in | rain mn in | humidity % | barometer mb |
| 20260505041540 | 58 | 159 | 5.0 | 7.0 | 0.00 | 0.00 | 0.00 | 58 | 1015.4 |
| 20260505041041 | 58 | 154 | 3.0 | 7.0 | 0.00 | 0.00 | 0.00 | 58 | 1015.4 |
| 20260505040440 | 57 | 182 | 1.0 | 5.0 | 0.00 | 0.00 | 0.00 | 59 | 1015.4 |
| 20260505040041 | 58 | 153 | 2.0 | 6.0 | 0.00 | 0.00 | 0.00 | 59 | 1015.4 |
| 20260505035340 | 58 | 149 | 3.0 | 5.0 | 0.00 | 0.00 | 0.00 | 58 | 1015.4 |
| 20260505035041 | 58 | 142 | 1.0 | 4.0 | 0.00 | 0.00 | 0.00 | 58 | 1015.4 |
| 20260505034240 | 59 | 159 | 1.0 | 7.0 | 0.00 | 0.00 | 0.00 | 56 | 1015.4 |
| 20260505034042 | 59 | 164 | 1.0 | 8.0 | 0.00 | 0.00 | 0.00 | 55 | 1015.3 |
| 20260505033140 | 59 | 128 | 3.0 | 8.0 | 0.00 | 0.00 | 0.00 | 55 | 1015.2 |
| 20260505033041 | 59 | 133 | 8.0 | 8.0 | 0.00 | 0.00 | 0.00 | 56 | 1015.3 |
| 20260505032040 | 58 | 133 | 1.0 | 5.0 | 0.00 | 0.00 | 0.00 | 57 | 1015.3 |
| 20260505031041 | 58 | 145 | 1.0 | 4.0 | 0.00 | 0.00 | 0.00 | 57 | 1015.3 |
| 20260505030940 | 58 | 134 | 1.0 | 5.0 | 0.00 | 0.00 | 0.00 | 57 | 1015.3 |
| 20260505030045 | 59 | 138 | 1.0 | 5.0 | 0.00 | 0.00 | 0.00 | 56 | 1015.3 |
| 20260505025840 | 59 | 132 | 0.0 | 5.0 | 0.00 | 0.00 | 0.00 | 56 | 1015.4 |
| 20260505025042 | 59 | 128 | 1.0 | 3.0 | 0.00 | 0.00 | 0.00 | 56 | 1015.4 |
| 20260505024740 | 59 | 86 | 2.0 | 4.0 | 0.00 | 0.00 | 0.00 | 56 | 1015.4 |
| 20260505024041 | 58 | 84 | 2.0 | 4.0 | 0.00 | 0.00 | 0.00 | 57 | 1015.4 |
| 20260505023640 | 58 | 90 | 2.0 | 6.0 | 0.00 | 0.00 | 0.00 | 57 | 1015.5 |
| 20260505023041 | 58 | 92 | 3.0 | 6.0 | 0.00 | 0.00 | 0.00 | 57 | 1015.5 |
| 20260505022540 | 58 | 88 | 3.0 | 6.0 | 0.00 | 0.00 | 0.00 | 57 | 1015.5 |
| 20260505022041 | 58 | 90 | 3.0 | 5.0 | 0.00 | 0.00 | 0.00 | 57 | 1015.5 |
| 20260505021440 | 58 | 92 | 3.0 | 6.0 | 0.00 | 0.00 | 0.00 | 57 | 1015.5 |
| 20260505021040 | 58 | 80 | 3.0 | 5.0 | 0.00 | 0.00 | 0.00 | 57 | 1015.6 |
| 20260505020340 | 58 | 93 | 2.0 | 4.0 | 0.00 | 0.00 | 0.00 | 57 | 1015.8 |
| 20260505020040 | 58 | 93 | 2.0 | 4.0 | 0.00 | 0.00 | 0.00 | 57 | 1015.8 |
| 20260505015240 | 58 | 96 | 1.0 | 4.0 | 0.00 | 0.00 | 0.00 | 57 | 1015.7 |
| 20260505015041 | 59 | 89 | 3.0 | 4.0 | 0.00 | 0.00 | 0.00 | 57 | 1015.7 |
| 20260505014139 | 58 | 79 | 3.0 | 6.0 | 0.00 | 0.00 | 0.00 | 57 | 1015.7 |
| 20260505014040 | 58 | 80 | 3.0 | 7.0 | 0.00 | 0.00 | 0.00 | 57 | 1015.6 |
| 20260505013051 | 58 | 82 | 4.0 | 6.0 | 0.00 | 0.00 | 0.00 | 57 | 1015.8 |
| 20260505012041 | 58 | 92 | 3.0 | 5.0 | 0.00 | 0.00 | 0.00 | 57 | 1015.8 |
| 20260505011043 | 58 | 78 | 3.0 | 6.0 | 0.00 | 0.00 | 0.00 | 57 | 1015.9 |
| 20260505010941 | 58 | 82 | 4.0 | 6.0 | 0.00 | 0.00 | 0.00 | 57 | 1015.8 |
| 20260505010042 | 58 | 93 | 6.0 | 7.0 | 0.00 | 0.00 | 0.00 | 57 | 1015.8 |
| 20260505005841 | 58 | 86 | 5.0 | 7.0 | 0.00 | 0.00 | 0.00 | 57 | 1015.8 |
| 20260505005044 | 58 | 76 | 5.0 | 5.0 | 0.00 | 0.00 | 0.00 | 57 | 1015.8 |
| 20260505004741 | 58 | 81 | 4.0 | 5.0 | 0.00 | 0.00 | 0.00 | 56 | 1015.9 |
| 20260505004042 | 59 | 85 | 4.0 | 6.0 | 0.00 | 0.00 | 0.00 | 56 | 1016.0 |
| 20260505003641 | 59 | 86 | 3.0 | 6.0 | 0.00 | 0.00 | 0.00 | 56 | 1016.1 |
| 20260505003042 | 59 | 60 | 3.0 | 6.0 | 0.00 | 0.00 | 0.00 | 56 | 1016.1 |
| 20260505002541 | 59 | 92 | 2.0 | 5.0 | 0.00 | 0.00 | 0.00 | 56 | 1016.2 |
| 20260505002042 | 59 | 76 | 2.0 | 5.0 | 0.00 | 0.00 | 0.00 | 56 | 1016.3 |
| 20260505001441 | 59 | 132 | 1.0 | 5.0 | 0.00 | 0.00 | 0.00 | 56 | 1016.3 |
| 20260505001043 | 59 | 153 | 4.0 | 4.0 | 0.00 | 0.00 | 0.00 | 56 | 1016.4 |
| 20260505000343 | 59 | 135 | 0.0 | 3.0 | 0.00 | 0.00 | 0.00 | 56 | 1016.5 |
| 20260505000042 | 59 | 129 | 1.0 | 5.0 | 0.00 | 0.00 | 0.00 | 56 | 1016.4 |
| 20260504235241 | 59 | 142 | 5.0 | 5.0 | 0.00 | 0.00 | 0.00 | 56 | 1016.5 |
| 20260504235043 | 59 | 130 | 1.0 | 5.0 | 0.00 | 0.00 | 0.00 | 56 | 1016.4 |
| 20260504234141 | 59 | 85 | 3.0 | 4.0 | 0.00 | 0.00 | 0.00 | 56 | 1016.4 |
| 20260504234043 | 59 | 136 | 3.0 | 4.0 | 0.00 | 0.00 | 0.00 | 57 | 1016.5 |
| 20260504233041 | 59 | 90 | 2.0 | 4.0 | 0.00 | 0.00 | 0.00 | 56 | 1016.6 |
| 20260504232043 | 59 | 80 | 3.0 | 5.0 | 0.00 | 0.00 | 0.00 | 56 | 1016.6 |
| 20260504231941 | 59 | 80 | 1.0 | 5.0 | 0.00 | 0.00 | 0.00 | 56 | 1016.6 |
| 20260504231042 | 59 | 92 | 2.0 | 4.0 | 0.00 | 0.00 | 0.00 | 56 | 1016.6 |
| 20260504230841 | 59 | 92 | 2.0 | 4.0 | 0.00 | 0.00 | 0.00 | 56 | 1016.7 |
| 20260504230042 | 59 | 93 | 2.0 | 4.0 | 0.00 | 0.00 | 0.00 | 55 | 1016.8 |
| 20260504225741 | 59 | 104 | 1.0 | 4.0 | 0.00 | 0.00 | 0.00 | 55 | 1016.9 |
| 20260504225042 | 60 | 89 | 2.0 | 3.0 | 0.00 | 0.00 | 0.00 | 55 | 1016.8 |
| 20260504224641 | 60 | 93 | 2.0 | 3.0 | 0.00 | 0.00 | 0.00 | 55 | 1016.9 |
| 20260504224043 | 60 | 98 | 1.0 | 3.0 | 0.00 | 0.00 | 0.00 | 54 | 1016.9 |
| 20260504223541 | 60 | 88 | 2.0 | 3.0 | 0.00 | 0.00 | 0.00 | 54 | 1016.9 |
| 20260504223042 | 61 | 142 | 0.0 | 2.0 | 0.00 | 0.00 | 0.00 | 53 | 1016.9 |
| 20260504222441 | 61 | 145 | 0.0 | 4.0 | 0.00 | 0.00 | 0.00 | 53 | 1016.9 |
| 20260504222043 | 61 | 136 | 2.0 | 4.0 | 0.00 | 0.00 | 0.00 | 52 | 1017.0 |
| 20260504221341 | 61 | 142 | 4.0 | 6.0 | 0.00 | 0.00 | 0.00 | 53 | 1017.0 |
| 20260504221042 | 61 | 157 | 5.0 | 6.0 | 0.00 | 0.00 | 0.00 | 53 | 1017.1 |
| 20260504220241 | 61 | 145 | 1.0 | 5.0 | 0.00 | 0.00 | 0.00 | 53 | 1017.1 |
| 20260504220043 | 61 | 148 | 1.0 | 5.0 | 0.00 | 0.00 | 0.00 | 53 | 1017.1 |
| 20260504215141 | 61 | 153 | 2.0 | 5.0 | 0.00 | 0.00 | 0.00 | 52 | 1017.0 |
| 20260504215043 | 61 | 162 | 4.0 | 5.0 | 0.00 | 0.00 | 0.00 | 52 | 1017.0 |
| 20260504214041 | 62 | 134 | 3.0 | 5.0 | 0.00 | 0.00 | 0.00 | 52 | 1017.0 |
| 20260504213044 | 62 | 139 | 4.0 | 7.0 | 0.00 | 0.00 | 0.00 | 51 | 1016.9 |
| 20260504212941 | 62 | 131 | 3.0 | 7.0 | 0.00 | 0.00 | 0.00 | 51 | 1016.9 |
| 20260504212044 | 62 | 129 | 2.0 | 8.0 | 0.00 | 0.00 | 0.00 | 50 | 1016.9 |
| 20260504211841 | 62 | 154 | 4.0 | 8.0 | 0.00 | 0.00 | 0.00 | 50 | 1016.9 |
| 20260504211043 | 62 | 134 | 4.0 | 8.0 | 0.00 | 0.00 | 0.00 | 50 | 1017.0 |
| 20260504210741 | 62 | 146 | 3.0 | 8.0 | 0.00 | 0.00 | 0.00 | 50 | 1016.9 |
| 20260504210042 | 62 | 144 | 5.0 | 6.0 | 0.00 | 0.00 | 0.00 | 50 | 1017.0 |
| 20260504205641 | 62 | 169 | 0.0 | 5.0 | 0.00 | 0.00 | 0.00 | 50 | 1017.0 |
| 20260504205046 | 62 | 117 | 3.0 | 4.0 | 0.00 | 0.00 | 0.00 | 49 | 1017.0 |
| 20260504204541 | 62 | 94 | 0.0 | 4.0 | 0.00 | 0.00 | 0.00 | 49 | 1017.1 |
| 20260504204042 | 62 | 94 | 1.0 | 4.0 | 0.00 | 0.00 | 0.00 | 49 | 1017.0 |
| 20260504203441 | 62 | 95 | 3.0 | 6.0 | 0.00 | 0.00 | 0.00 | 49 | 1017.0 |
| 20260504202341 | 62 | 85 | 3.0 | 7.0 | 0.00 | 0.00 | 0.00 | 49 | 1017.0 |
| 20260504202045 | 63 | 93 | 2.0 | 8.0 | 0.00 | 0.00 | 0.00 | 49 | 1017.0 |
| 20260504201242 | 63 | 84 | 5.0 | 7.0 | 0.00 | 0.00 | 0.00 | 49 | 1017.0 |
| 20260504201043 | 63 | 82 | 5.0 | 7.0 | 0.00 | 0.00 | 0.00 | 49 | 1017.0 |
| 20260504200142 | 63 | 81 | 5.0 | 7.0 | 0.00 | 0.00 | 0.00 | 48 | 1017.0 |
| 20260504200043 | 63 | 90 | 4.0 | 7.0 | 0.00 | 0.00 | 0.00 | 48 | 1017.0 |
| 20260504195042 | 64 | 77 | 5.0 | 8.0 | 0.00 | 0.00 | 0.00 | 48 | 1017.1 |
| 20260504194044 | 64 | 75 | 4.0 | 6.0 | 0.00 | 0.00 | 0.00 | 48 | 1017.2 |
| 20260504193942 | 64 | 77 | 7.0 | 7.0 | 0.00 | 0.00 | 0.00 | 48 | 1017.1 |
| 20260504193043 | 64 | 91 | 4.0 | 7.0 | 0.00 | 0.00 | 0.00 | 48 | 1017.1 |
| 20260504192842 | 64 | 95 | 2.0 | 6.0 | 0.00 | 0.00 | 0.00 | 48 | 1017.1 |
| 20260504192043 | 64 | 91 | 3.0 | 5.0 | 0.00 | 0.00 | 0.00 | 48 | 1017.1 |
| 20260504191742 | 64 | 74 | 3.0 | 6.0 | 0.00 | 0.00 | 0.00 | 48 | 1017.2 |
| 20260504191043 | 64 | 92 | 3.0 | 4.0 | 0.00 | 0.00 | 0.00 | 48 | 1017.1 |
| 20260504190642 | 65 | 96 | 3.0 | 4.0 | 0.00 | 0.00 | 0.00 | 49 | 1017.1 |
| 20260504190043 | 65 | 94 | 3.0 | 4.0 | 0.00 | 0.00 | 0.00 | 48 | 1017.1 |
| 20260504185542 | 65 | 88 | 2.0 | 4.0 | 0.00 | 0.00 | 0.00 | 49 | 1017.1 |
| 20260504185043 | 65 | 90 | 3.0 | 4.0 | 0.00 | 0.00 | 0.00 | 49 | 1017.1 |
| 20260504184442 | 66 | 88 | 3.0 | 4.0 | 0.00 | 0.00 | 0.00 | 49 | 1017.1 |
| 20260504184043 | 66 | 95 | 3.0 | 4.0 | 0.00 | 0.00 | 0.00 | 49 | 1017.0 |
| 20260504183342 | 66 | 96 | 3.0 | 6.0 | 0.00 | 0.00 | 0.00 | 49 | 1016.9 |
| 20260504183043 | 66 | 85 | 4.0 | 6.0 | 0.00 | 0.00 | 0.00 | 49 | 1016.9 |
| 20260504182242 | 67 | 90 | 3.0 | 6.0 | 0.00 | 0.00 | 0.00 | 49 | 1016.9 |
| 20260504182043 | 67 | 91 | 3.0 | 6.0 | 0.00 | 0.00 | 0.00 | 49 | 1016.9 |
| 20260504181142 | 67 | 88 | 3.0 | 6.0 | 0.00 | 0.00 | 0.00 | 48 | 1016.9 |
| 20260504181043 | 67 | 90 | 3.0 | 6.0 | 0.00 | 0.00 | 0.00 | 48 | 1016.9 |
| 20260504180041 | 68 | 89 | 2.0 | 4.0 | 0.00 | 0.00 | 0.00 | 47 | 1016.8 |
| 20260504175043 | 69 | 90 | 2.0 | 3.0 | 0.00 | 0.00 | 0.00 | 47 | 1016.9 |
| 20260504174941 | 69 | 89 | 2.0 | 3.0 | 0.00 | 0.00 | 0.00 | 46 | 1016.9 |
| 20260504174042 | 70 | 148 | 1.0 | 2.0 | 0.00 | 0.00 | 0.00 | 46 | 1016.9 |
| 20260504173841 | 70 | 148 | 1.0 | 2.0 | 0.00 | 0.00 | 0.00 | 46 | 1016.8 |
| 20260504173043 | 70 | 148 | 1.0 | 2.0 | 0.00 | 0.00 | 0.00 | 45 | 1016.7 |
| 20260504172741 | 70 | 148 | 1.0 | 2.0 | 0.00 | 0.00 | 0.00 | 45 | 1016.7 |
| 20260504172043 | 71 | 109 | 1.0 | 2.0 | 0.00 | 0.00 | 0.00 | 45 | 1016.7 |
| 20260504171641 | 71 | 109 | 1.0 | 2.0 | 0.00 | 0.00 | 0.00 | 44 | 1016.6 |
| 20260504171043 | 71 | 109 | 0.0 | 2.0 | 0.00 | 0.00 | 0.00 | 43 | 1016.5 |
| 20260504170541 | 71 | 109 | 1.0 | 2.0 | 0.00 | 0.00 | 0.00 | 43 | 1016.8 |
| 20260504151043 | 75 | 60 | 0.0 | 6.0 | 0.00 | 0.00 | 0.00 | 38 | 1017.2 |
| 20260504150441 | 75 | 48 | 2.0 | 9.0 | 0.00 | 0.00 | 0.00 | 37 | 1017.3 |
| 20260504141044 | 76 | 177 | 0.0 | 9.0 | 0.00 | 0.00 | 0.00 | 40 | 1017.6 |
| 20260504140941 | 76 | 159 | 5.0 | 9.0 | 0.00 | 0.00 | 0.00 | 40 | 1017.5 |
| 20260504130341 | 76 | 273 | 6.0 | 10.0 | 0.00 | 0.00 | 0.00 | 41 | 1018.5 |
| 20260504110241 | 75 | 156 | 1.0 | 4.0 | 0.00 | 0.00 | 0.00 | 40 | 1019.9 |
| 20260504090142 | 70 | 143 | 2.0 | 4.0 | 0.00 | 0.00 | 0.00 | 46 | 1021.0 |
| 20260504081742 | 68 | 53 | 1.0 | 6.0 | 0.00 | 0.00 | 0.00 | 46 | 1021.1 |
| 20260504081042 | 67 | 179 | 0.0 | 5.0 | 0.00 | 0.00 | 0.00 | 51 | 1021.0 |
| 20260504080641 | 67 | 144 | 3.0 | 5.0 | 0.00 | 0.00 | 0.00 | 49 | 1020.9 |
| 20260504045941 | 50 | 138 | 0.0 | 3.0 | 0.00 | 0.00 | 0.00 | 67 | 1020.8 |
| 20260504045042 | 49 | 138 | 0.0 | 2.0 | 0.00 | 0.00 | 0.00 | 68 | 1020.7 |
| 20260504044841 | 49 | 138 | 0.0 | 2.0 | 0.00 | 0.00 | 0.00 | 68 | 1020.7 |
| 20260504044042 | 49 | 138 | 1.0 | 3.0 | 0.00 | 0.00 | 0.00 | 68 | 1020.6 |
| 20260504043741 | 49 | 138 | 0.0 | 3.0 | 0.00 | 0.00 | 0.00 | 68 | 1020.6 |
| 20260504043042 | 48 | 136 | 2.0 | 3.0 | 0.00 | 0.00 | 0.00 | 67 | 1020.4 |